Location: Valencia
(39.4670°N, 0.3670°W)
Time: 08:48:55
(UTC+02:00)

ISS - Pass Details

Date: 11 July 2017
Orbit: 400 x 408 km, 51.6° (Epoch: 21 July)

Event Time Altitude Azimuth Distance (km) Brightness Sun altitude
Exits shadow 04:17:06 59° 5° (N) 468 -3.4 -21.3°
Drops below altitude 10° 04:19:59 10° 47° (NE) 1,456 0.1 -21.0°
Sets 04:22:05 0° 51° (NE) 2,319 1.3 -20.8°
